Wetbulb
59.49 59.89 60.21 60.33 60.20 59.71 58.90 57.90 57.40 57.45 57.68 57.95 58.13 58.59 59.13 59.71 58.04 57.14 57.05 57.95 58.13 57.36 56.19 54.83 54.60 54.73 54.96 55.18 55.36 55.31 55.13 54.81 54.53 54.31 53.98 53.80 54.03 54.35 54.80 55.35 55.99 56.62 57.21 57.77 57.99 58.27 58.45 58.59 58.68 58.68 58.50 58.18 57.77 57.41 57.05 56.59 56.37 56.23 56.32 56.59 57.21 57.57 57.61 57.61 57.61 57.75 57.84 57.93 58.07
55.08 55.94 56.76 57.21 56.71 55.76 54.68 53.86 53.55 53.46 53.32 53.15 52.83 52.47 52.24 52.06 51.47 51.11 51.02 51.29 51.61 51.75 51.56 51.43 51.38 51.52 51.65 51.87 52.14 52.19 52.10 51.96 51.73 51.59 51.40 51.27 51.48 51.93 52.48 52.99 53.49 54.22 55.03 55.84 56.80 57.66 58.54 58.85 59.08 58.90 58.45 57.86 57.41 56.91 56.32 55.55 55.55 55.87 56.22 56.71 57.12 57.21 57.12 56.89 56.70 56.79 56.97 57.11 57.52
51.64 51.87 52.10 52.41 52.50 52.41 52.14 51.79 51.52 51.47 51.38 51.47 51.52 51.34 51.06 50.75 50.39 50.12 49.94 49.94 50.21 50.39 50.34 50.12 49.93 49.98 50.07 50.20 50.43 50.56 50.51 50.47 50.28 50.14 49.92 49.78 49.86 50.00 50.40 50.76 51.04 51.49 52.07 52.75 53.47 54.46 55.60 56.89 58.08 58.50 58.31 57.86 57.36 56.91 56.37 55.46 55.46 56.04 56.62 56.80 56.94 56.85 56.62 56.26 55.80 55.66 55.66 55.57 55.74
50.51 50.52 50.47 50.47 50.65 50.70 50.74 50.75 50.52 50.43 50.48 50.57 50.52 50.39 50.25 50.07 49.80 49.57 49.39 49.30 49.26 49.26 49.21 49.17 49.17 49.25 49.20 49.25 49.29 49.34 49.47 49.65 49.28 48.97 48.61 48.33 48.20 48.29 48.51 48.78 48.92 49.05 49.31 49.57 49.97 50.74 52.06 53.99 56.30 57.44 57.72 57.63 57.23 56.41 55.55 54.83 54.41 54.91 55.72 56.12 55.99 55.90 55.90 56.08 55.85 55.40 54.95 54.86 54.17
49.16 49.16 49.07 48.94 48.98 49.12 49.35 49.53 49.44 49.44 49.53 49.80 49.62 49.44 49.35 49.21 49.08 48.81 48.53 48.17 47.99 47.99 48.13 48.26 48.30 48.39 48.34 48.39 48.21 48.21 48.16 48.02 48.06 47.66 47.31 47.04 47.09 47.18 47.26 47.44 47.53 47.66 47.93 48.01 48.24 48.69 49.78 51.65 54.36 55.67 56.03 56.31 56.63 56.50 56.32 56.58 56.17 55.94 55.76 55.49 55.44 55.31 55.13 55.27 54.91 54.14 53.69 54.28 53.46
47.81 47.85 47.85 47.86 47.81 47.86 47.95 47.95 47.90 47.95 48.13 48.26 48.04 47.86 47.81 47.90 47.77 47.40 47.04 46.73 46.77 46.95 47.13 47.27 47.31 47.17 46.99 46.77 46.60 46.42 46.29 46.25 46.42 46.38 46.33 46.24 46.29 46.33 46.38 46.24 46.38 46.47 46.69 46.82 47.00 47.31 48.21 49.79 51.91 52.94 53.49 54.12 54.89 55.25 55.48 55.71 56.04 56.22 56.03 55.62 54.71 54.26 54.13 54.31 54.22 54.31 54.35 54.44 53.68
46.37 46.37 46.33 46.46 46.37 46.42 46.46 46.41 46.46 46.46 46.46 46.37 46.01 45.87 45.78 45.97 45.92 45.88 45.75 45.67 45.50 45.50 45.50 45.50 45.32 45.19 45.06 44.94 44.94 44.94 44.94 45.02 45.19 45.36 45.40 45.40 45.35 45.35 45.40 45.40 45.44 45.49 45.53 45.66 45.80 46.15 46.78 47.94 48.92 49.54 50.17 50.90 52.03 52.15 51.77 51.68 52.75 53.63 54.36 54.95 53.73 53.10 52.73 52.55 53.63 54.48 54.97 54.70 54.35
45.13 45.09 45.04 45.13 45.09 45.08 45.07 45.16 45.25 45.16 45.07 44.80 44.40 44.36 44.46 44.64 44.48 44.40 44.24 44.00 43.70 43.66 43.70 43.74 43.54 43.58 43.70 43.75 43.75 43.83 43.95 43.94 44.02 44.14 44.30 44.47 44.28 44.33 44.37 44.46 44.46 44.46 44.54 44.59 44.72 44.89 45.39 46.37 46.64 46.73 46.96 47.67 48.25 48.38 48.20 48.00 48.69 49.33 50.22 51.64 53.09 54.23 54.90 55.18 55.31 55.27 55.09 54.68 54.30
44.28 44.20 44.24 44.24 44.15 44.01 43.97 43.97 44.01 43.91 43.69 43.51 43.44 43.38 43.35 43.33 43.01 42.77 42.65 42.56 42.74 42.82 42.95 42.82 42.86 42.95 42.98 42.90 42.89 42.93 42.97 42.91 42.90 42.88 43.00 43.17 43.06 43.05 43.13 43.34 43.16 43.25 43.37 43.50 43.54 43.54 43.81 44.75 44.89 44.85 44.90 45.26 45.26 45.21 45.26 45.76 45.97 46.19 46.82 47.94 49.25 50.37 51.36 52.17 52.81 53.26 53.58 53.77 53.36
43.33 43.42 43.47 43.42 43.37 43.25 43.22 43.09 43.00 42.88 42.58 42.08 42.06 42.04 42.15 42.33 41.96 41.84 41.80 41.97 42.10 42.05 41.97 42.01 42.22 42.21 42.16 42.11 42.05 42.00 42.04 42.07 41.92 41.77 41.71 41.83 41.69 41.49 41.38 41.58 41.44 41.52 41.74 41.87 42.00 42.00 42.14 42.85 42.76 42.58 42.54 42.90 42.62 42.85 43.35 43.80 43.93 44.34 45.15 46.37 46.91 47.31 47.63 48.07 48.97 49.91 50.85 51.66 52.08
42.36 42.50 42.54 42.57 42.58 42.60 42.48 42.29 42.14 41.83 41.35 40.74 40.58 40.67 40.79 41.00 40.92 41.01 41.19 41.40 41.21 40.98 41.01 41.28 41.41 41.40 41.31 41.34 41.28 41.26 41.25 41.10 40.95 40.65 40.36 40.21 40.06 39.82 39.63 39.62 39.57 39.61 39.70 39.93 40.19 40.50 40.77 40.90 40.27 39.86 39.82 40.27 40.14 40.63 41.31 41.68 41.99 42.30 43.07 44.52 44.84 45.11 45.52 46.06 47.22 48.34 49.19 50.00 50.68
41.28 41.39 41.44 41.45 41.42 41.38 41.29 41.08 40.68 40.30 40.07 39.77 39.72 39.71 39.70 39.73 39.94 40.25 40.51 40.42 40.13 40.15 40.31 40.66 40.69 40.60 40.51 40.50 40.47 40.50 40.35 39.87 39.66 39.47 39.28 38.72 38.40 38.17 38.03 38.03 38.03 38.03 38.12 38.25 38.51 38.87 38.96 38.37 38.00 37.91 37.87 37.74 38.55 39.09 39.32 39.32 39.67 40.08 40.98 42.66 43.16 43.53 44.04 44.81 45.84 46.82 47.80 48.83 49.60
39.98 40.01 39.99 39.93 39.87 39.74 39.56 39.38 39.17 38.99 38.89 38.83 38.90 38.98 39.05 39.12 39.43 39.53 39.52 39.29 39.26 39.42 39.62 39.91 40.07 39.97 39.77 39.53 39.47 39.45 39.26 38.97 38.64 38.50 38.28 37.86 37.45 37.17 37.04 37.04 36.94 36.94 37.08 37.30 37.21 37.24 37.19 36.74 36.50 36.54 36.73 36.87 37.37 37.69 37.77 37.81 38.12 38.44 39.25 40.84 42.75 43.35 43.46 43.78 44.27 45.21 46.37 47.40 48.12
38.57 38.54 38.60 38.65 38.62 38.53 38.34 38.18 38.16 38.07 37.95 37.89 38.06 38.27 38.40 38.52 38.92 38.97 38.70 38.32 38.42 38.49 38.69 39.04 39.47 39.49 39.18 38.78 38.65 38.55 38.28 38.19 37.91 37.46 37.18 37.09 36.63 36.26 36.04 36.04 35.81 35.85 36.03 36.26 35.98 35.70 35.69 35.74 35.73 35.86 36.04 36.27 36.42 36.69 36.91 37.13 37.49 37.75 38.43 40.02 41.80 42.83 43.43 43.47 43.69 44.35 44.98 45.38 45.96
37.49 37.49 37.59 37.69 37.69 37.60 37.53 37.29 37.36 37.28 37.19 37.08 37.25 37.43 37.61 37.73 38.17 38.30 37.94 37.46 37.47 37.68 37.81 37.99 38.32 38.51 38.65 38.49 37.95 37.68 37.50 37.37 37.05 36.73 36.41 36.18 35.72 35.36 35.27 35.30 35.17 35.17 35.21 35.21 34.98 34.93 35.01 35.15 35.29 35.46 35.59 35.77 35.82 35.96 36.05 36.31 36.68 37.03 37.48 37.89 39.59 41.25 42.53 43.07 43.24 43.32 43.32 43.17 43.44
36.47 36.55 36.69 36.70 36.61 36.60 36.50 36.49 36.60 36.44 36.30 36.14 36.26 36.43 36.61 36.72 37.12 37.39 37.20 36.58 36.63 36.76 36.79 36.66 36.82 37.11 37.55 38.22 37.50 37.05 36.69 36.42 36.10 35.77 35.36 34.99 34.81 34.58 34.53 34.53 34.58 34.62 34.53 34.44 34.39 34.39 34.52 34.66 34.97 35.06 35.06 35.10 35.10 35.19 35.32 35.51 35.82 36.13 36.53 36.81 37.35 38.41 39.69 40.74 41.10 40.96 40.68 40.77 41.26
35.54 35.62 35.67 35.62 35.56 35.49 35.40 35.44 35.57 35.53 35.35 35.26 35.29 35.33 35.41 35.52 35.89 36.38 36.51 35.98 35.59 35.45 35.38 35.21 35.38 35.47 35.65 36.19 36.27 36.04 35.59 34.96 34.69 34.40 34.08 33.72 33.63 33.54 33.45 33.45 33.85 33.81 33.62 33.48 33.48 33.57 33.63 33.67 33.94 34.15 34.20 34.28 34.37 34.56 34.69 34.87 35.09 35.36 35.68 36.04 36.31 36.68 37.32 38.68 39.09 39.23 39.14 39.27 39.59
34.63 34.63 34.67 34.70 34.55 34.52 34.46 34.50 34.48 34.41 34.29 34.25 34.33 34.33 34.36 34.36 34.45 34.75 35.05 35.04 34.31 33.86 33.63 33.53 33.51 33.37 33.19 33.14 33.54 34.30 34.45 33.22 32.77 32.50 32.32 32.23 32.18 32.18 32.18 32.18 32.64 32.50 32.18 32.08 32.26 32.45 32.63 32.72 32.77 32.99 33.24 33.38 33.65 33.97 34.24 34.46 34.68 34.87 35.14 35.37 35.60 35.82 36.23 36.92 37.24 37.74 38.23 38.60 39.15
33.71 33.75 33.77 33.76 33.70 33.77 33.81 33.89 33.59 33.35 33.19 33.12 33.00 33.03 32.98 32.89 33.02 33.15 33.32 33.32 33.36 32.68 32.04 32.12 31.93 31.70 31.52 31.34 31.33 32.60 33.46 32.46 31.29 30.89 30.84 30.80 30.75 30.80 30.84 30.84 31.02 30.92 30.83 30.87 30.97 31.25 31.48 31.75 32.05 32.32 32.58 32.89 33.20 33.48 33.75 33.93 34.20 34.43 34.61 34.84 35.02 35.21 35.43 35.70 35.98 36.43 37.01 37.47 38.38
32.95 32.93 32.84 32.83 32.81 32.72 32.67 32.70 32.42 32.10 31.87 31.72 31.54 31.53 31.58 31.49 31.50 31.67 31.79 31.65 31.82 31.33 30.79 30.82 30.77 30.63 30.45 30.18 30.09 30.55 31.35 32.15 30.45 29.87 29.87 29.81 29.81 29.90 30.00 30.13 30.18 30.27 30.27 30.31 30.45 30.59 30.86 31.26 31.75 32.15 32.46 32.87 33.13 33.17 33.27 33.45 33.81 34.00 34.18 34.49 34.72 34.91 35.09 35.36 35.59 35.86 36.17 36.49 36.94
31.97 31.87 31.83 31.83 31.74 31.56 31.38 31.16 30.99 30.81 30.49 30.39 30.34 30.25 30.16 30.11 30.07 30.11 30.28 30.64 30.37 30.00 29.72 29.58 29.53 29.47 29.38 29.20 29.26 29.26 29.80 31.49 29.79 29.17 29.26 29.36 29.76 29.94 30.03 30.28 29.92 29.91 29.92 30.02 30.34 30.62 30.93 31.51 31.96 32.31 32.62 32.93 32.98 32.98 33.06 33.33 33.62 33.77 33.90 34.26 34.49 34.63 34.73 35.03 35.17 35.34 35.57 35.84 36.33
30.78 30.55 30.46 30.43 30.52 30.48 30.23 29.92 29.88 29.75 29.66 29.48 29.43 29.25 29.11 29.02 28.83 28.70 28.70 28.96 29.05 28.81 28.58 28.52 28.37 28.23 28.19 28.19 28.29 28.38 28.83 29.91 28.92 28.84 29.06 28.97 29.39 29.75 30.06 30.00 29.36 29.27 29.37 29.61 30.02 30.60 31.36 32.31 32.76 32.80 32.79 32.70 32.57 32.75 33.11 33.65 33.88 33.89 33.85 33.95 34.00 34.09 34.27 34.49 34.57 34.93 35.20 35.23 36.46
29.02 28.80 28.66 28.57 29.02 29.69 29.93 29.00 28.69 28.60 28.60 28.51 28.29 28.16 28.10 27.96 27.83 27.61 27.46 27.32 28.12 27.95 27.58 27.63 27.53 27.48 27.43 27.35 27.36 27.46 27.79 28.19 28.28 28.56 28.62 28.24 28.51 28.69 28.81 28.80 28.76 28.80 29.16 29.66 30.55 31.42 32.32 33.37 33.59 33.37 33.01 32.73 32.61 32.83 33.15 33.59 33.95 33.95 33.78 33.66 33.67 33.72 33.82 34.04 34.07 34.29 34.55 34.72 35.52
27.62 27.66 27.65 27.46 27.36 27.46 27.55 27.64 27.60 27.55 27.41 27.14 26.96 26.96 26.96 26.81 26.90 26.78 26.74 26.55 26.63 26.53 26.56 26.85 27.05 27.32 27.41 27.12 27.04 27.09 27.45 27.87 28.23 28.37 28.46 28.36 28.44 28.39 28.47 28.80 28.98 29.16 29.67 30.88 33.41 34.94 35.70 36.12 35.25 34.53 34.00 33.62 33.53 33.62 33.71 33.66 33.24 33.28 33.43 33.63 33.65 33.74 33.79 33.80 33.57 33.74 34.00 34.31 34.85
26.62 26.99 27.08 26.62 26.64 26.55 26.41 26.58 26.75 26.66 26.30 26.03 25.95 26.09 26.18 26.13 26.18 26.27 26.37 26.50 26.39 26.24 26.19 26.31 26.65 27.55 28.13 27.54 27.28 27.21 27.30 27.61 27.87 28.14 28.33 28.59 28.58 28.57 28.70 29.25 29.43 30.05 31.36 33.79 36.93 38.57 39.20 39.20 38.22 36.95 35.65 34.75 34.41 34.27 34.04 33.56 33.19 33.22 33.58 33.96 33.97 33.89 33.77 33.34 33.15 33.23 33.41 33.63 34.05
26.05 26.09 26.03 25.81 25.99 25.93 25.88 25.79 25.65 25.47 25.34 25.47 25.58 25.62 25.70 25.61 25.79 25.93 26.08 26.38 26.32 26.19 26.21 26.46 26.88 28.74 29.82 27.77 27.22 27.17 27.26 27.56 27.42 27.33 27.63 28.26 28.31 28.23 28.39 29.15 29.89 30.90 32.52 35.38 37.53 38.85 39.60 40.05 39.93 38.97 37.41 35.34 34.69 34.36 34.18 33.85 33.68 33.58 33.48 33.39 33.50 33.48 33.33 33.27 33.26 33.43 33.67 34.08 33.97
25.35 25.21 25.11 25.24 25.42 25.45 25.22 24.85 25.00 25.04 25.13 25.14 25.23 25.19 25.17 25.04 25.47 25.70 25.72 25.90 25.86 26.02 26.19 26.50 27.05 29.16 30.11 27.18 26.72 26.61 26.78 26.99 26.95 26.81 26.80 27.00 27.27 27.42 27.72 28.36 29.24 30.82 33.01 35.84 37.50 38.59 39.25 39.70 39.86 39.64 38.65 36.27 34.76 34.13 33.97 33.89 33.74 33.51 33.29 33.06 32.95 32.77 32.68 32.78 32.97 33.34 33.81 33.97 33.91
24.41 24.50 24.59 25.00 25.27 25.08 24.66 24.56 24.96 25.01 24.86 24.68 24.47 24.52 24.62 24.63 24.80 24.98 25.11 25.10 25.23 25.61 25.89 26.13 27.23 27.40 27.04 26.11 25.87 25.84 25.94 26.03 26.37 26.55 26.63 26.50 26.72 26.77 27.12 27.99 28.60 30.68 33.49 36.38 37.42 38.29 38.87 39.28 39.43 39.60 39.25 37.90 35.36 34.10 33.68 33.47 33.41 33.19 32.96 32.82 32.65 32.37 32.07 32.29 32.97 33.34 33.54 33.70 33.80
23.30 23.71 24.17 24.80 24.60 24.32 24.22 24.34 24.33 23.97 23.61 23.34 23.22 23.59 24.08 24.31 24.26 24.17 24.12 24.24 24.45 24.91 25.40 25.51 26.59 25.96 25.03 24.97 24.84 24.90 25.06 25.47 25.85 26.15 26.21 26.18 26.27 26.61 27.05 27.66 28.21 30.53 33.65 36.46 37.20 37.91 38.40 38.81 39.04 39.26 39.31 39.02 36.76 35.05 33.97 33.43 33.22 32.89 32.79 32.98 32.65 32.86 33.30 33.79 33.60 33.75 33.92 33.96 34.04
21.99 22.63 23.30 23.61 23.43 23.37 23.31 23.06 22.66 22.39 22.30 22.39 22.33 22.66 23.10 23.42 23.37 23.40 23.48 23.64 23.85 24.89 25.66 25.15 24.54 24.19 24.13 24.15 24.23 24.42 24.79 25.07 25.24 25.30 25.43 25.43 26.19 26.98 27.74 28.65 28.12 29.97 32.91 36.14 36.89 37.58 38.03 38.39 38.61 38.83 38.96 38.98 37.57 36.11 34.91 34.22 33.47 33.06 33.00 33.16 33.49 33.92 34.32 34.34 34.26 34.15 34.17 34.19 34.11
20.74 21.35 22.05 22.54 22.57 22.51 22.32 21.90 21.68 21.43 21.29 21.43 21.54 21.99 22.43 22.69 22.91 23.03 23.06 23.00 23.83 25.56 26.40 24.74 23.78 23.73 24.06 24.00 24.13 24.40 24.52 24.59 24.68 24.85 25.07 25.34 27.31 27.67 27.29 26.95 26.55 28.91 32.54 35.76 36.56 37.24 37.65 38.05 38.23 38.40 38.50 38.53 37.49 36.62 35.95 35.30 34.42 33.82 33.35 33.02 33.42 33.54 33.60 34.11 34.13 34.13 34.16 34.29 34.36
19.94 20.46 21.19 22.03 22.03 21.84 21.47 20.84 20.53 20.32 20.34 20.62 21.11 21.77 22.24 22.47 22.73 22.76 22.79 23.23 23.96 24.23 24.19 23.80 23.96 24.12 24.08 23.86 24.14 24.14 24.05 24.21 24.54 25.25 25.95 26.36 25.97 25.42 25.48 26.73 26.07 28.56 32.29 35.44 36.24 36.83 37.32 37.66 37.81 37.91 38.01 38.23 37.40 36.45 35.61 35.17 34.65 33.80 33.03 32.90 33.49 33.70 33.90 34.17 34.23 34.30 34.41 34.58 34.61
19.53 20.04 20.68 21.39 21.57 21.29 20.76 20.13 19.82 19.79 20.16 20.71 21.29 21.83 22.21 22.39 22.48 22.48 22.91 23.91 24.23 23.78 23.35 23.82 23.96 23.92 23.89 23.86 23.87 23.83 23.96 24.74 24.89 25.62 26.17 26.12 24.96 24.62 24.94 26.30 26.06 29.00 32.77 35.09 35.86 36.45 36.89 37.21 37.40 37.51 37.69 37.90 37.10 36.14 35.26 34.69 34.39 33.83 33.38 33.46 33.83 34.10 34.26 34.41 34.43 34.52 34.60 34.79 35.05
19.36 19.71 20.31 20.84 21.44 20.95 20.09 19.61 19.39 19.72 20.40 21.31 21.93 22.20 22.36 22.27 22.49 22.98 23.79 25.03 24.78 24.02 23.41 23.42 23.38 23.34 23.36 23.33 23.28 23.38 24.23 26.37 25.04 24.05 23.53 23.49 23.56 23.79 24.38 25.30 26.42 29.65 33.04 34.78 35.51 36.02 36.47 36.80 36.95 37.13 37.35 37.57 36.71 35.67 34.68 34.08 33.91 33.73 33.65 33.64 33.67 33.77 33.93 34.29 34.39 34.45 34.65 34.70 34.95
19.07 19.45 19.94 20.13 20.26 19.95 19.59 19.21 19.31 20.00 21.08 21.99 22.43 22.58 22.45 22.30 22.57 22.95 23.87 25.79 25.65 23.99 22.25 21.95 21.87 21.97 22.03 21.96 22.09 22.85 23.74 24.29 23.34 22.82 22.64 22.85 22.93 23.49 24.12 24.32 25.57 29.08 32.70 34.49 35.12 35.56 35.99 36.35 36.58 36.84 37.01 36.91 35.92 34.95 34.11 33.60 33.42 33.24 33.15 33.28 33.28 33.43 33.61 33.87 34.03 34.17 34.30 34.33 34.38
18.73 19.07 19.52 19.71 19.64 19.51 19.37 19.14 19.69 20.64 21.68 22.20 22.57 22.62 22.45 22.12 22.15 22.33 23.38 26.06 24.76 22.93 21.41 20.99 20.68 20.70 20.89 21.04 21.13 22.61 23.72 22.77 22.42 22.45 22.81 23.34 22.97 22.81 22.89 23.34 24.06 27.60 31.67 34.07 34.65 35.06 35.53 35.93 36.24 36.55 36.58 36.08 35.05 34.38 33.89 33.51 33.26 33.07 32.82 32.68 32.67 33.03 33.43 33.59 33.71 33.73 33.75 33.67 33.90
18.55 18.85 19.28 19.49 19.71 19.64 19.39 19.18 20.04 21.04 21.71 21.56 21.85 21.90 21.79 21.65 21.56 21.51 22.40 25.07 22.66 21.56 21.08 20.70 20.44 20.58 20.86 21.11 21.23 21.76 22.21 21.93 21.96 22.47 23.26 24.39 23.68 23.11 22.85 23.16 22.99 25.87 29.96 33.30 34.13 34.72 35.15 35.55 35.94 36.24 36.03 35.06 34.26 33.76 33.55 33.32 33.17 32.94 32.69 32.30 32.61 33.01 33.19 33.04 33.32 33.44 33.44 33.49 34.03
18.46 18.80 19.32 19.46 19.70 19.62 19.42 19.36 20.18 20.76 21.07 20.89 20.84 20.76 20.71 20.67 20.65 20.76 21.96 25.25 22.48 21.32 20.99 20.49 20.44 20.55 20.67 20.98 21.23 21.35 21.26 21.02 22.13 22.65 22.93 23.11 22.78 22.66 22.72 22.82 22.82 25.10 28.68 32.55 33.70 34.38 34.84 35.29 35.77 36.03 35.74 34.65 33.88 33.52 33.30 33.14 32.84 32.69 32.52 32.40 32.61 32.74 32.77 32.63 32.98 33.23 33.49 33.70 34.70
18.64 18.85 18.97 18.97 19.25 19.36 19.40 19.57 20.07 20.47 20.65 20.65 20.29 20.13 19.95 19.72 19.72 20.74 22.48 24.54 21.77 20.79 20.68 20.49 20.43 20.49 20.85 22.06 22.29 22.02 21.50 20.82 21.62 22.53 22.84 22.12 22.48 24.05 25.27 24.71 23.95 25.28 28.20 32.08 33.35 34.08 34.55 35.08 35.57 35.96 35.88 35.01 34.02 33.58 33.40 33.08 32.59 32.32 32.18 32.15 32.09 32.08 32.19 32.34 32.54 32.82 33.17 33.55 34.85
18.46 18.46 18.36 18.13 18.54 18.85 19.18 19.51 19.88 20.10 20.19 20.22 20.10 20.01 20.04 20.67 21.56 22.93 23.66 22.39 20.29 19.68 19.85 20.18 20.36 20.62 21.62 24.27 23.71 22.35 21.05 20.56 20.13 20.83 21.91 22.67 23.88 26.69 28.56 27.19 25.12 25.27 27.29 31.07 32.75 33.63 34.24 34.91 35.48 35.96 35.92 34.98 34.19 33.67 33.24 32.88 32.23 31.78 31.49 31.46 31.29 31.29 31.37 31.75 32.03 32.27 32.59 32.85 33.82
17.73 18.32 19.09 19.21 18.76 18.80 19.12 19.53 19.82 19.79 19.66 19.68 19.83 20.46 21.59 23.37 22.72 22.24 21.39 19.61 19.15 19.24 19.60 20.18 20.34 20.52 21.51 24.12 23.53 22.04 20.65 20.40 20.49 20.55 21.29 23.44 24.56 26.80 28.07 26.65 24.75 24.17 25.18 28.09 31.33 33.15 34.23 34.96 35.45 35.96 35.93 35.05 34.19 33.53 32.99 32.49 31.61 31.07 30.81 30.87 30.88 30.83 30.87 31.17 31.48 31.70 31.86 32.03 32.22
MSLP
1009.23 1009.23 1009.27 1009.37 1009.51 1009.73 1009.93 1010.05 1010.09 1010.09 1010.11 1010.15 1010.23 1010.31 1010.43 1010.65 1011.05 1011.31 1011.37 1011.43 1011.61 1011.89 1012.17 1012.37 1012.43 1012.33 1012.15 1011.99 1011.95 1012.03 1012.27 1012.61 1012.99 1013.37 1013.65 1013.87 1013.95 1013.95 1013.89 1013.87 1013.83 1013.87 1013.87 1013.89 1013.93 1013.99 1014.09 1014.15 1014.17 1014.23 1014.31 1014.39 1014.45 1014.51 1014.59 1014.59 1014.61 1014.65 1014.67 1014.71 1014.71 1014.71 1014.73 1014.71 1014.67 1014.61 1014.55 1014.45 1014.37
1009.65 1009.59 1009.59 1009.65 1009.83 1010.03 1010.21 1010.33 1010.43 1010.51 1010.61 1010.71 1010.81 1010.99 1011.23 1011.49 1011.65 1011.73 1011.83 1011.99 1012.21 1012.39 1012.55 1012.67 1012.65 1012.43 1012.17 1012.15 1012.27 1012.51 1012.87 1013.17 1013.43 1013.65 1013.83 1013.99 1014.03 1013.95 1013.89 1013.93 1013.99 1014.03 1014.03 1014.05 1014.09 1014.11 1014.15 1014.17 1014.21 1014.23 1014.31 1014.37 1014.45 1014.55 1014.59 1014.61 1014.61 1014.61 1014.65 1014.67 1014.67 1014.67 1014.67 1014.67 1014.61 1014.59 1014.51 1014.45 1014.43
1010.05 1010.05 1010.05 1010.15 1010.23 1010.33 1010.43 1010.55 1010.71 1010.93 1011.11 1011.23 1011.33 1011.45 1011.61 1011.73 1011.87 1011.99 1012.21 1012.49 1012.61 1012.65 1012.71 1012.83 1012.77 1012.59 1012.49 1012.65 1012.93 1013.23 1013.49 1013.67 1013.81 1013.93 1014.05 1014.15 1014.15 1014.09 1014.09 1014.15 1014.23 1014.33 1014.39 1014.39 1014.39 1014.37 1014.33 1014.33 1014.31 1014.33 1014.39 1014.43 1014.45 1014.51 1014.55 1014.59 1014.55 1014.59 1014.61 1014.65 1014.65 1014.61 1014.59 1014.55 1014.51 1014.49 1014.49 1014.49 1014.45
1010.33 1010.39 1010.51 1010.61 1010.65 1010.65 1010.67 1010.83 1011.09 1011.33 1011.51 1011.61 1011.67 1011.73 1011.83 1011.99 1012.17 1012.43 1012.67 1012.89 1012.93 1012.95 1013.03 1013.09 1013.03 1013.03 1013.11 1013.37 1013.61 1013.83 1013.99 1014.11 1014.23 1014.31 1014.33 1014.33 1014.31 1014.33 1014.37 1014.43 1014.49 1014.55 1014.59 1014.59 1014.59 1014.59 1014.55 1014.49 1014.43 1014.39 1014.45 1014.49 1014.49 1014.51 1014.51 1014.51 1014.49 1014.51 1014.55 1014.59 1014.55 1014.55 1014.51 1014.49 1014.43 1014.43 1014.45 1014.43 1014.43
1010.73 1010.77 1010.87 1010.99 1011.05 1011.09 1011.15 1011.23 1011.45 1011.65 1011.81 1011.89 1011.95 1012.09 1012.27 1012.49 1012.71 1012.95 1013.15 1013.23 1013.27 1013.31 1013.31 1013.31 1013.37 1013.51 1013.73 1013.95 1014.11 1014.31 1014.43 1014.51 1014.51 1014.49 1014.49 1014.45 1014.49 1014.55 1014.61 1014.61 1014.71 1014.73 1014.77 1014.77 1014.77 1014.73 1014.71 1014.65 1014.59 1014.59 1014.59 1014.59 1014.59 1014.59 1014.51 1014.43 1014.43 1014.43 1014.45 1014.49 1014.49 1014.49 1014.51 1014.49 1014.49 1014.49 1014.49 1014.49 1014.49
1011.09 1011.09 1011.15 1011.27 1011.39 1011.55 1011.67 1011.81 1011.87 1011.95 1012.11 1012.27 1012.39 1012.59 1012.81 1013.05 1013.23 1013.33 1013.39 1013.45 1013.49 1013.51 1013.55 1013.61 1013.77 1013.99 1014.17 1014.37 1014.45 1014.59 1014.65 1014.65 1014.65 1014.59 1014.59 1014.61 1014.67 1014.73 1014.77 1014.83 1014.87 1014.89 1014.93 1014.95 1014.95 1014.93 1014.89 1014.87 1014.77 1014.73 1014.73 1014.71 1014.67 1014.67 1014.65 1014.61 1014.51 1014.49 1014.45 1014.43 1014.45 1014.49 1014.51 1014.55 1014.51 1014.51 1014.55 1014.51 1014.55
1011.37 1011.37 1011.45 1011.65 1011.93 1012.15 1012.31 1012.33 1012.31 1012.37 1012.51 1012.67 1012.87 1013.09 1013.31 1013.45 1013.51 1013.55 1013.59 1013.61 1013.65 1013.73 1013.83 1013.99 1014.17 1014.33 1014.45 1014.55 1014.61 1014.67 1014.71 1014.71 1014.71 1014.71 1014.73 1014.81 1014.83 1014.89 1014.99 1015.05 1015.09 1015.09 1015.11 1015.15 1015.11 1015.11 1015.09 1015.03 1014.99 1014.99 1014.99 1014.89 1014.87 1014.87 1014.89 1014.89 1014.83 1014.73 1014.67 1014.61 1014.51 1014.51 1014.55 1014.55 1014.49 1014.45 1014.49 1014.49 1014.49
1011.71 1011.73 1011.89 1012.21 1012.51 1012.73 1012.81 1012.81 1012.73 1012.81 1012.95 1013.15 1013.39 1013.59 1013.71 1013.73 1013.77 1013.81 1013.81 1013.81 1013.93 1014.05 1014.21 1014.37 1014.49 1014.55 1014.59 1014.61 1014.65 1014.67 1014.71 1014.77 1014.81 1014.87 1014.93 1014.99 1015.05 1015.11 1015.17 1015.21 1015.21 1015.23 1015.27 1015.27 1015.27 1015.23 1015.23 1015.21 1015.17 1015.21 1015.21 1015.17 1015.17 1015.17 1015.17 1015.11 1015.09 1015.03 1014.99 1014.89 1014.81 1014.73 1014.67 1014.61 1014.59 1014.55 1014.51 1014.49 1014.45
1012.05 1012.21 1012.45 1012.73 1012.99 1013.15 1013.21 1013.21 1013.23 1013.33 1013.49 1013.73 1013.89 1014.03 1014.11 1014.11 1014.09 1014.09 1014.11 1014.21 1014.33 1014.43 1014.51 1014.59 1014.67 1014.65 1014.65 1014.67 1014.73 1014.81 1014.87 1014.93 1015.05 1015.11 1015.17 1015.17 1015.23 1015.31 1015.33 1015.33 1015.39 1015.39 1015.43 1015.43 1015.43 1015.43 1015.43 1015.39 1015.45 1015.49 1015.51 1015.51 1015.51 1015.49 1015.43 1015.33 1015.31 1015.27 1015.23 1015.15 1015.09 1014.99 1014.93 1014.93 1014.87 1014.81 1014.73 1014.65 1014.59
1012.49 1012.73 1012.99 1013.23 1013.45 1013.59 1013.65 1013.71 1013.81 1013.93 1014.09 1014.27 1014.43 1014.49 1014.49 1014.45 1014.43 1014.43 1014.51 1014.61 1014.65 1014.67 1014.71 1014.81 1014.77 1014.77 1014.77 1014.83 1014.95 1015.05 1015.15 1015.21 1015.31 1015.37 1015.39 1015.45 1015.49 1015.51 1015.55 1015.59 1015.61 1015.61 1015.65 1015.65 1015.67 1015.67 1015.67 1015.67 1015.71 1015.73 1015.73 1015.71 1015.71 1015.67 1015.61 1015.55 1015.49 1015.49 1015.45 1015.39 1015.33 1015.23 1015.17 1015.15 1015.09 1015.03 1014.95 1014.87 1014.77
1013.03 1013.27 1013.51 1013.73 1013.93 1013.99 1014.05 1014.15 1014.33 1014.45 1014.59 1014.73 1014.83 1014.87 1014.83 1014.73 1014.73 1014.73 1014.81 1014.81 1014.81 1014.87 1014.95 1014.99 1014.95 1014.95 1015.03 1015.11 1015.23 1015.37 1015.43 1015.49 1015.55 1015.59 1015.65 1015.71 1015.71 1015.73 1015.77 1015.83 1015.87 1015.87 1015.87 1015.89 1015.93 1015.93 1015.93 1015.93 1015.95 1015.93 1015.89 1015.89 1015.87 1015.83 1015.77 1015.73 1015.71 1015.67 1015.65 1015.55 1015.51 1015.45 1015.39 1015.33 1015.23 1015.21 1015.15 1015.05 1014.95
1013.61 1013.83 1013.99 1014.17 1014.27 1014.33 1014.43 1014.59 1014.77 1014.89 1014.95 1015.05 1015.09 1015.09 1015.05 1015.05 1015.05 1015.05 1015.03 1014.95 1014.95 1015.09 1015.17 1015.23 1015.23 1015.23 1015.31 1015.43 1015.51 1015.61 1015.65 1015.71 1015.73 1015.77 1015.77 1015.87 1015.89 1015.93 1015.99 1016.03 1016.05 1016.09 1016.09 1016.11 1016.11 1016.09 1016.09 1016.11 1016.11 1016.09 1016.09 1016.05 1016.03 1015.99 1015.95 1015.89 1015.87 1015.83 1015.77 1015.71 1015.65 1015.61 1015.55 1015.49 1015.45 1015.39 1015.33 1015.23 1015.11
1014.11 1014.23 1014.39 1014.51 1014.61 1014.67 1014.77 1014.89 1015.09 1015.17 1015.23 1015.27 1015.27 1015.27 1015.27 1015.31 1015.31 1015.23 1015.21 1015.17 1015.21 1015.33 1015.45 1015.49 1015.49 1015.49 1015.59 1015.67 1015.77 1015.77 1015.81 1015.83 1015.89 1015.93 1015.95 1016.05 1016.09 1016.15 1016.17 1016.21 1016.23 1016.27 1016.27 1016.23 1016.27 1016.27 1016.23 1016.23 1016.27 1016.27 1016.27 1016.23 1016.17 1016.15 1016.15 1016.09 1016.05 1016.03 1015.99 1015.95 1015.87 1015.83 1015.77 1015.67 1015.65 1015.61 1015.51 1015.39 1015.23
1014.55 1014.67 1014.77 1014.87 1014.93 1014.99 1015.09 1015.17 1015.31 1015.39 1015.45 1015.49 1015.49 1015.49 1015.49 1015.51 1015.51 1015.45 1015.43 1015.45 1015.51 1015.61 1015.67 1015.67 1015.71 1015.77 1015.83 1015.89 1015.93 1015.99 1016.03 1016.05 1016.11 1016.17 1016.27 1016.33 1016.37 1016.43 1016.43 1016.45 1016.49 1016.49 1016.49 1016.49 1016.45 1016.45 1016.45 1016.49 1016.49 1016.49 1016.49 1016.45 1016.37 1016.33 1016.31 1016.27 1016.23 1016.21 1016.17 1016.15 1016.09 1016.03 1015.93 1015.83 1015.77 1015.71 1015.65 1015.51 1015.37
1014.99 1015.09 1015.15 1015.21 1015.21 1015.23 1015.27 1015.37 1015.51 1015.59 1015.65 1015.67 1015.71 1015.67 1015.67 1015.73 1015.73 1015.71 1015.71 1015.71 1015.81 1015.83 1015.87 1015.93 1015.99 1016.05 1016.11 1016.15 1016.21 1016.27 1016.33 1016.39 1016.43 1016.51 1016.61 1016.67 1016.71 1016.73 1016.77 1016.77 1016.77 1016.77 1016.73 1016.73 1016.71 1016.71 1016.67 1016.71 1016.71 1016.67 1016.65 1016.61 1016.55 1016.49 1016.45 1016.43 1016.39 1016.37 1016.31 1016.23 1016.17 1016.09 1015.99 1015.89 1015.83 1015.73 1015.67 1015.59 1015.45
1015.33 1015.43 1015.43 1015.43 1015.43 1015.43 1015.45 1015.55 1015.67 1015.77 1015.83 1015.93 1015.93 1015.89 1015.93 1015.99 1015.99 1015.95 1015.95 1016.03 1016.09 1016.11 1016.17 1016.31 1016.37 1016.39 1016.43 1016.49 1016.51 1016.59 1016.65 1016.71 1016.81 1016.87 1016.93 1017.03 1017.03 1017.05 1017.05 1017.05 1017.03 1017.03 1016.99 1016.95 1016.93 1016.89 1016.87 1016.83 1016.83 1016.81 1016.77 1016.71 1016.67 1016.61 1016.55 1016.49 1016.45 1016.39 1016.37 1016.31 1016.23 1016.15 1016.05 1015.95 1015.87 1015.77 1015.67 1015.61 1015.49
1015.61 1015.67 1015.67 1015.65 1015.61 1015.67 1015.77 1015.87 1015.95 1016.05 1016.15 1016.21 1016.21 1016.23 1016.23 1016.27 1016.31 1016.31 1016.33 1016.39 1016.45 1016.49 1016.59 1016.67 1016.73 1016.77 1016.81 1016.83 1016.89 1016.93 1016.95 1017.03 1017.09 1017.15 1017.21 1017.27 1017.31 1017.31 1017.31 1017.31 1017.27 1017.21 1017.17 1017.15 1017.11 1017.05 1016.99 1016.93 1016.89 1016.83 1016.81 1016.73 1016.67 1016.65 1016.55 1016.49 1016.45 1016.39 1016.33 1016.27 1016.17 1016.11 1016.03 1015.93 1015.87 1015.77 1015.67 1015.61 1015.49
1015.89 1015.95 1015.95 1015.95 1016.03 1016.09 1016.21 1016.31 1016.39 1016.45 1016.51 1016.59 1016.61 1016.65 1016.67 1016.67 1016.71 1016.73 1016.77 1016.81 1016.87 1016.93 1016.99 1017.05 1017.11 1017.15 1017.15 1017.17 1017.21 1017.21 1017.23 1017.31 1017.37 1017.39 1017.43 1017.45 1017.49 1017.49 1017.49 1017.43 1017.37 1017.33 1017.27 1017.21 1017.17 1017.11 1017.05 1016.95 1016.89 1016.83 1016.77 1016.71 1016.65 1016.59 1016.51 1016.45 1016.39 1016.33 1016.27 1016.17 1016.11 1016.05 1015.95 1015.87 1015.81 1015.73 1015.65 1015.59 1015.45
1016.27 1016.33 1016.37 1016.43 1016.51 1016.59 1016.65 1016.73 1016.83 1016.89 1016.95 1016.99 1017.03 1017.05 1017.09 1017.09 1017.09 1017.11 1017.15 1017.17 1017.21 1017.23 1017.27 1017.33 1017.39 1017.39 1017.39 1017.39 1017.45 1017.43 1017.43 1017.45 1017.51 1017.55 1017.59 1017.59 1017.59 1017.59 1017.55 1017.49 1017.43 1017.37 1017.31 1017.23 1017.17 1017.09 1017.03 1016.93 1016.83 1016.77 1016.71 1016.65 1016.59 1016.49 1016.43 1016.37 1016.31 1016.23 1016.17 1016.11 1016.05 1015.95 1015.89 1015.81 1015.73 1015.65 1015.59 1015.49 1015.39
1016.65 1016.73 1016.81 1016.87 1016.93 1016.99 1017.05 1017.11 1017.17 1017.23 1017.27 1017.27 1017.31 1017.33 1017.33 1017.37 1017.37 1017.37 1017.39 1017.45 1017.45 1017.43 1017.45 1017.51 1017.51 1017.55 1017.55 1017.55 1017.55 1017.55 1017.55 1017.55 1017.59 1017.61 1017.65 1017.61 1017.61 1017.59 1017.51 1017.45 1017.39 1017.33 1017.27 1017.17 1017.11 1017.03 1016.93 1016.83 1016.73 1016.67 1016.61 1016.55 1016.49 1016.43 1016.37 1016.27 1016.21 1016.15 1016.05 1016.03 1015.93 1015.87 1015.77 1015.67 1015.61 1015.55 1015.49 1015.43 1015.33
1017.03 1017.09 1017.15 1017.17 1017.21 1017.27 1017.33 1017.37 1017.39 1017.43 1017.43 1017.43 1017.45 1017.49 1017.49 1017.51 1017.51 1017.51 1017.55 1017.59 1017.59 1017.55 1017.55 1017.55 1017.59 1017.59 1017.59 1017.61 1017.61 1017.61 1017.65 1017.65 1017.67 1017.67 1017.65 1017.65 1017.59 1017.51 1017.45 1017.39 1017.33 1017.27 1017.17 1017.09 1016.99 1016.93 1016.83 1016.73 1016.65 1016.59 1016.51 1016.45 1016.39 1016.33 1016.27 1016.21 1016.11 1016.03 1015.95 1015.89 1015.81 1015.71 1015.65 1015.55 1015.45 1015.43 1015.37 1015.31 1015.21
1017.33 1017.39 1017.43 1017.43 1017.45 1017.49 1017.51 1017.51 1017.51 1017.51 1017.55 1017.55 1017.59 1017.59 1017.59 1017.59 1017.61 1017.65 1017.67 1017.65 1017.61 1017.59 1017.59 1017.61 1017.61 1017.65 1017.67 1017.67 1017.71 1017.71 1017.71 1017.71 1017.71 1017.71 1017.67 1017.61 1017.55 1017.49 1017.43 1017.37 1017.31 1017.23 1017.15 1017.05 1016.93 1016.83 1016.71 1016.61 1016.51 1016.45 1016.39 1016.33 1016.31 1016.23 1016.17 1016.09 1016.03 1015.93 1015.83 1015.77 1015.67 1015.61 1015.51 1015.43 1015.37 1015.31 1015.23 1015.17 1015.09
1017.65 1017.67 1017.71 1017.67 1017.67 1017.67 1017.67 1017.67 1017.67 1017.67 1017.65 1017.67 1017.71 1017.71 1017.71 1017.73 1017.73 1017.73 1017.73 1017.71 1017.67 1017.67 1017.67 1017.71 1017.73 1017.77 1017.77 1017.81 1017.83 1017.83 1017.83 1017.81 1017.77 1017.73 1017.67 1017.65 1017.55 1017.49 1017.45 1017.39 1017.31 1017.21 1017.11 1017.03 1016.89 1016.73 1016.61 1016.49 1016.39 1016.33 1016.31 1016.27 1016.21 1016.15 1016.09 1016.03 1015.93 1015.87 1015.81 1015.71 1015.61 1015.55 1015.45 1015.37 1015.31 1015.21 1015.15 1015.09 1015.03
1017.89 1017.89 1017.89 1017.89 1017.87 1017.89 1017.89 1017.83 1017.83 1017.83 1017.83 1017.87 1017.87 1017.87 1017.87 1017.89 1017.83 1017.83 1017.83 1017.81 1017.83 1017.83 1017.87 1017.89 1017.93 1017.95 1017.95 1017.99 1017.99 1017.99 1017.95 1017.93 1017.87 1017.77 1017.67 1017.61 1017.51 1017.49 1017.43 1017.37 1017.27 1017.17 1017.11 1016.99 1016.83 1016.65 1016.49 1016.37 1016.27 1016.21 1016.17 1016.15 1016.11 1016.05 1016.03 1015.95 1015.89 1015.83 1015.77 1015.65 1015.55 1015.45 1015.37 1015.27 1015.23 1015.17 1015.09 1014.99 1014.95
1018.03 1018.03 1018.03 1018.03 1018.03 1018.03 1017.99 1017.99 1017.99 1018.03 1018.05 1018.05 1018.05 1018.05 1018.05 1018.05 1018.03 1017.99 1017.99 1017.99 1018.03 1018.05 1018.11 1018.11 1018.15 1018.11 1018.09 1018.11 1018.11 1018.05 1018.03 1017.95 1017.89 1017.83 1017.71 1017.55 1017.49 1017.43 1017.37 1017.31 1017.21 1017.15 1017.05 1016.89 1016.71 1016.49 1016.37 1016.23 1016.17 1016.11 1016.09 1016.03 1015.99 1015.93 1015.89 1015.83 1015.81 1015.73 1015.65 1015.55 1015.45 1015.37 1015.27 1015.17 1015.11 1015.05 1014.99 1014.89 1014.83
1018.05 1018.05 1018.09 1018.11 1018.09 1018.09 1018.09 1018.11 1018.15 1018.15 1018.17 1018.17 1018.17 1018.17 1018.17 1018.21 1018.17 1018.17 1018.17 1018.21 1018.21 1018.23 1018.23 1018.23 1018.23 1018.21 1018.15 1018.15 1018.11 1018.05 1017.99 1017.95 1017.87 1017.81 1017.71 1017.61 1017.49 1017.43 1017.37 1017.31 1017.21 1017.15 1017.03 1016.83 1016.61 1016.43 1016.31 1016.17 1016.09 1015.99 1015.93 1015.89 1015.87 1015.81 1015.73 1015.67 1015.61 1015.55 1015.49 1015.43 1015.33 1015.23 1015.15 1015.09 1014.95 1014.89 1014.83 1014.73 1014.71
1018.15 1018.17 1018.21 1018.21 1018.17 1018.21 1018.23 1018.27 1018.27 1018.31 1018.31 1018.31 1018.31 1018.31 1018.33 1018.33 1018.31 1018.31 1018.33 1018.37 1018.37 1018.37 1018.33 1018.33 1018.33 1018.27 1018.21 1018.17 1018.15 1018.09 1018.03 1017.93 1017.87 1017.81 1017.73 1017.65 1017.59 1017.49 1017.37 1017.31 1017.21 1017.11 1016.99 1016.77 1016.55 1016.37 1016.21 1016.09 1015.95 1015.87 1015.77 1015.73 1015.67 1015.65 1015.59 1015.51 1015.45 1015.39 1015.33 1015.27 1015.21 1015.11 1015.05 1014.99 1014.87 1014.77 1014.67 1014.59 1014.51
1018.45 1018.45 1018.43 1018.39 1018.39 1018.45 1018.49 1018.45 1018.45 1018.49 1018.51 1018.51 1018.51 1018.51 1018.51 1018.49 1018.49 1018.49 1018.49 1018.51 1018.51 1018.45 1018.43 1018.39 1018.39 1018.33 1018.31 1018.23 1018.23 1018.17 1018.09 1017.99 1017.89 1017.77 1017.71 1017.65 1017.55 1017.45 1017.37 1017.27 1017.15 1017.03 1016.87 1016.65 1016.43 1016.23 1016.11 1015.99 1015.83 1015.73 1015.67 1015.59 1015.55 1015.51 1015.49 1015.43 1015.33 1015.27 1015.21 1015.17 1015.11 1015.05 1014.99 1014.93 1014.83 1014.71 1014.59 1014.51 1014.43
1018.81 1018.77 1018.73 1018.73 1018.81 1018.81 1018.77 1018.77 1018.81 1018.81 1018.81 1018.81 1018.81 1018.73 1018.71 1018.67 1018.67 1018.67 1018.67 1018.67 1018.65 1018.61 1018.59 1018.55 1018.45 1018.39 1018.37 1018.31 1018.23 1018.17 1018.09 1017.95 1017.87 1017.73 1017.61 1017.55 1017.43 1017.33 1017.23 1017.15 1017.05 1016.89 1016.73 1016.55 1016.33 1016.15 1016.03 1015.89 1015.77 1015.65 1015.51 1015.45 1015.43 1015.43 1015.37 1015.33 1015.23 1015.17 1015.15 1015.09 1015.09 1015.03 1014.89 1014.83 1014.73 1014.67 1014.55 1014.43 1014.37
1019.11 1019.09 1019.09 1019.09 1019.11 1019.11 1019.11 1019.11 1019.11 1019.09 1019.05 1019.03 1018.99 1018.93 1018.87 1018.87 1018.87 1018.87 1018.83 1018.83 1018.77 1018.73 1018.67 1018.59 1018.55 1018.49 1018.43 1018.31 1018.21 1018.11 1017.99 1017.89 1017.81 1017.67 1017.59 1017.45 1017.37 1017.23 1017.11 1017.03 1016.95 1016.83 1016.65 1016.43 1016.23 1016.09 1015.93 1015.77 1015.67 1015.59 1015.49 1015.37 1015.37 1015.31 1015.27 1015.21 1015.17 1015.15 1015.11 1015.03 1014.99 1014.93 1014.83 1014.73 1014.67 1014.61 1014.49 1014.37 1014.23
1019.33 1019.31 1019.31 1019.31 1019.31 1019.31 1019.31 1019.27 1019.23 1019.21 1019.17 1019.15 1019.09 1019.05 1019.03 1019.03 1019.03 1018.99 1018.93 1018.87 1018.81 1018.67 1018.59 1018.51 1018.51 1018.43 1018.33 1018.21 1018.11 1018.03 1017.93 1017.81 1017.71 1017.61 1017.51 1017.39 1017.27 1017.15 1017.09 1016.99 1016.93 1016.77 1016.59 1016.37 1016.17 1016.03 1015.87 1015.73 1015.61 1015.51 1015.43 1015.31 1015.31 1015.23 1015.17 1015.11 1015.11 1015.09 1015.05 1014.99 1014.93 1014.87 1014.77 1014.67 1014.59 1014.49 1014.37 1014.23 1014.15
1019.45 1019.43 1019.37 1019.37 1019.39 1019.37 1019.33 1019.33 1019.31 1019.27 1019.21 1019.21 1019.15 1019.15 1019.11 1019.05 1019.03 1018.95 1018.87 1018.77 1018.71 1018.61 1018.51 1018.45 1018.37 1018.27 1018.17 1018.09 1018.03 1017.95 1017.87 1017.77 1017.67 1017.55 1017.45 1017.37 1017.31 1017.21 1017.09 1016.99 1016.89 1016.77 1016.59 1016.33 1016.15 1015.99 1015.83 1015.71 1015.61 1015.49 1015.37 1015.27 1015.21 1015.15 1015.11 1015.09 1015.05 1015.03 1014.95 1014.89 1014.81 1014.71 1014.65 1014.55 1014.39 1014.31 1014.21 1014.09 1013.95
1019.45 1019.43 1019.43 1019.43 1019.43 1019.43 1019.37 1019.37 1019.31 1019.23 1019.21 1019.17 1019.15 1019.11 1019.05 1018.99 1018.89 1018.81 1018.71 1018.65 1018.55 1018.49 1018.43 1018.37 1018.31 1018.21 1018.15 1018.09 1017.95 1017.87 1017.81 1017.73 1017.65 1017.59 1017.49 1017.43 1017.33 1017.23 1017.11 1017.03 1016.93 1016.77 1016.55 1016.31 1016.11 1015.95 1015.81 1015.65 1015.51 1015.43 1015.31 1015.17 1015.11 1015.09 1015.05 1015.03 1014.99 1014.93 1014.83 1014.73 1014.65 1014.55 1014.45 1014.37 1014.23 1014.11 1014.03 1013.93 1013.81
1019.49 1019.45 1019.45 1019.49 1019.43 1019.39 1019.39 1019.33 1019.27 1019.17 1019.11 1019.09 1019.03 1018.95 1018.89 1018.83 1018.73 1018.65 1018.55 1018.49 1018.43 1018.39 1018.37 1018.33 1018.31 1018.23 1018.17 1018.15 1018.03 1017.95 1017.87 1017.73 1017.65 1017.61 1017.55 1017.49 1017.39 1017.27 1017.15 1017.03 1016.89 1016.73 1016.51 1016.33 1016.11 1015.95 1015.77 1015.61 1015.49 1015.37 1015.21 1015.09 1015.05 1015.05 1015.03 1014.95 1014.87 1014.77 1014.67 1014.55 1014.45 1014.37 1014.27 1014.17 1014.05 1013.93 1013.83 1013.71 1013.61
1019.55 1019.51 1019.49 1019.45 1019.43 1019.37 1019.31 1019.23 1019.15 1019.05 1018.99 1018.89 1018.83 1018.77 1018.73 1018.71 1018.67 1018.61 1018.51 1018.39 1018.37 1018.39 1018.39 1018.37 1018.31 1018.27 1018.21 1018.15 1018.09 1018.03 1017.89 1017.77 1017.71 1017.65 1017.59 1017.49 1017.39 1017.27 1017.15 1016.99 1016.83 1016.67 1016.51 1016.31 1016.09 1015.89 1015.71 1015.55 1015.39 1015.27 1015.11 1015.03 1014.99 1014.95 1014.89 1014.81 1014.71 1014.59 1014.49 1014.37 1014.23 1014.15 1014.05 1013.95 1013.83 1013.73 1013.65 1013.51 1013.43
1019.55 1019.49 1019.45 1019.39 1019.31 1019.23 1019.17 1019.11 1019.05 1018.95 1018.87 1018.83 1018.81 1018.77 1018.73 1018.71 1018.67 1018.61 1018.51 1018.43 1018.39 1018.43 1018.45 1018.39 1018.37 1018.31 1018.27 1018.17 1018.11 1018.03 1017.95 1017.87 1017.77 1017.65 1017.55 1017.49 1017.39 1017.27 1017.11 1016.93 1016.77 1016.61 1016.43 1016.23 1016.03 1015.83 1015.67 1015.49 1015.33 1015.17 1015.03 1014.95 1014.89 1014.83 1014.73 1014.61 1014.51 1014.39 1014.31 1014.17 1014.05 1013.95 1013.87 1013.73 1013.65 1013.51 1013.43 1013.37 1013.23
1019.49 1019.45 1019.39 1019.33 1019.23 1019.17 1019.11 1019.05 1018.99 1018.93 1018.93 1018.93 1018.93 1018.93 1018.87 1018.81 1018.73 1018.67 1018.59 1018.51 1018.51 1018.51 1018.51 1018.45 1018.45 1018.39 1018.33 1018.21 1018.11 1018.03 1017.95 1017.87 1017.77 1017.65 1017.51 1017.39 1017.33 1017.21 1017.05 1016.89 1016.73 1016.55 1016.37 1016.17 1015.95 1015.73 1015.55 1015.39 1015.23 1015.09 1014.93 1014.83 1014.73 1014.65 1014.51 1014.39 1014.31 1014.17 1014.09 1013.99 1013.89 1013.77 1013.67 1013.59 1013.43 1013.31 1013.23 1013.15 1013.05
1019.43 1019.37 1019.31 1019.27 1019.21 1019.17 1019.11 1019.09 1019.05 1019.05 1019.09 1019.09 1019.05 1019.03 1018.95 1018.93 1018.87 1018.81 1018.71 1018.59 1018.61 1018.61 1018.59 1018.51 1018.49 1018.39 1018.31 1018.17 1018.09 1017.99 1017.89 1017.81 1017.71 1017.61 1017.49 1017.37 1017.27 1017.15 1017.03 1016.83 1016.61 1016.43 1016.27 1016.05 1015.83 1015.65 1015.45 1015.27 1015.09 1014.95 1014.83 1014.71 1014.55 1014.43 1014.33 1014.23 1014.11 1013.99 1013.89 1013.77 1013.65 1013.55 1013.49 1013.39 1013.27 1013.15 1013.03 1012.93 1012.81
1019.37 1019.33 1019.31 1019.23 1019.23 1019.21 1019.17 1019.17 1019.17 1019.17 1019.17 1019.15 1019.11 1019.05 1019.03 1018.99 1018.95 1018.87 1018.77 1018.65 1018.67 1018.67 1018.65 1018.55 1018.49 1018.37 1018.21 1018.11 1018.03 1017.89 1017.77 1017.67 1017.61 1017.51 1017.39 1017.27 1017.15 1017.03 1016.87 1016.71 1016.49 1016.31 1016.11 1015.93 1015.73 1015.51 1015.33 1015.15 1014.95 1014.77 1014.65 1014.51 1014.39 1014.27 1014.17 1014.05 1013.95 1013.83 1013.73 1013.65 1013.49 1013.37 1013.27 1013.21 1013.11 1012.99 1012.83 1012.71 1012.61
1019.37 1019.31 1019.27 1019.27 1019.31 1019.31 1019.27 1019.31 1019.27 1019.23 1019.21 1019.21 1019.17 1019.15 1019.05 1018.99 1018.89 1018.81 1018.71 1018.67 1018.71 1018.67 1018.59 1018.51 1018.39 1018.27 1018.15 1017.99 1017.89 1017.81 1017.67 1017.55 1017.49 1017.39 1017.31 1017.15 1017.03 1016.83 1016.65 1016.51 1016.33 1016.17 1015.99 1015.81 1015.65 1015.45 1015.23 1015.03 1014.81 1014.61 1014.49 1014.37 1014.23 1014.11 1014.03 1013.93 1013.81 1013.67 1013.59 1013.49 1013.33 1013.17 1013.05 1012.95 1012.89 1012.81 1012.67 1012.51 1012.43
1019.37 1019.31 1019.27 1019.27 1019.31 1019.33 1019.37 1019.37 1019.31 1019.23 1019.21 1019.23 1019.21 1019.15 1019.03 1018.89 1018.87 1018.81 1018.73 1018.71 1018.67 1018.61 1018.51 1018.39 1018.31 1018.21 1018.09 1017.93 1017.83 1017.73 1017.61 1017.45 1017.31 1017.21 1017.11 1016.95 1016.83 1016.65 1016.49 1016.37 1016.21 1016.05 1015.89 1015.71 1015.51 1015.31 1015.09 1014.87 1014.67 1014.49 1014.31 1014.21 1014.09 1013.99 1013.89 1013.81 1013.67 1013.55 1013.43 1013.33 1013.21 1013.05 1012.89 1012.71 1012.61 1012.55 1012.45 1012.33 1012.21
Wind_Speed
3 1 1 1 1 2 4 5 5 6 5 5 4 3 2 2 4 4 4 4 4 4 5 5 4 5 7 10 12 13 13 13 12 11 10 9 7 6 7 7 7 6 6 5 4 2 1 1 1 1 1 1 1 1 1 1 1 1 1 1 1 2 2 3 4 4 4 4 3
9 8 7 6 7 7 6 6 7 8 8 7 8 8 8 7 7 7 8 8 7 6 6 5 5 8 11 14 14 13 13 12 11 10 10 9 8 8 8 8 8 8 8 8 7 5 3 3 2 1 0 0 1 1 1 1 1 0 1 2 2 2 2 3 3 3 4 4 4
10 10 10 9 8 7 7 7 9 9 9 8 7 7 7 7 7 8 8 7 7 6 6 6 7 10 13 14 13 12 11 10 10 9 9 8 9 9 9 9 9 8 8 7 7 6 5 5 3 2 2 1 1 1 1 1 0 1 2 3 2 2 2 2 3 3 3 3 4
12 11 11 11 11 10 9 9 10 10 9 7 8 8 8 8 8 8 8 7 8 7 7 7 8 10 11 12 11 11 10 9 9 8 8 7 8 9 9 9 8 8 8 7 7 6 6 5 3 2 3 3 2 2 1 0 1 1 2 2 2 2 3 3 3 3 2 2 3
12 12 11 11 12 12 11 10 11 10 8 7 8 8 8 8 7 7 7 7 7 7 8 9 8 9 9 10 10 10 9 8 8 7 7 8 9 9 9 9 9 8 8 8 8 7 6 5 3 3 3 3 3 3 3 3 3 2 2 2 2 2 3 3 3 3 3 3 2
12 13 13 13 14 13 11 11 12 11 9 9 9 9 8 7 6 6 6 7 7 8 9 10 9 8 8 8 9 8 8 7 7 8 8 9 9 9 9 10 9 8 8 8 8 8 7 6 4 3 3 3 4 5 6 7 6 4 3 3 2 2 3 3 3 3 3 4 4
13 14 15 15 15 13 12 11 11 11 11 10 11 11 10 8 8 8 8 8 8 8 9 8 8 7 7 7 7 8 8 8 8 9 9 9 9 9 9 9 9 9 9 8 8 8 7 6 5 4 4 4 4 6 8 8 7 6 6 5 3 2 2 3 3 3 4 5 5
15 16 16 15 14 13 13 12 11 11 11 10 11 11 11 10 10 10 9 9 8 8 8 7 8 8 8 8 8 9 9 9 9 9 9 9 9 9 9 9 9 9 9 9 8 8 7 6 5 5 5 5 4 5 7 9 8 7 7 7 5 4 4 4 3 3 4 5 6
14 15 15 14 14 13 13 13 13 13 12 12 11 11 11 10 10 10 10 9 8 8 7 7 8 9 10 10 10 10 9 9 10 9 9 9 10 9 9 8 9 9 8 8 8 8 7 6 5 5 5 4 4 5 6 8 7 7 6 5 6 6 7 7 7 7 7 7 7
14 14 13 13 13 13 13 13 13 13 13 12 12 11 11 10 10 9 9 8 8 8 8 8 9 10 11 11 11 10 9 9 9 9 9 9 9 9 9 8 8 8 8 7 7 7 7 5 5 5 4 4 5 5 6 7 7 7 6 4 5 6 7 7 7 8 9 9 9
14 13 12 11 11 11 12 12 11 11 11 11 11 10 10 10 10 9 8 8 9 10 10 9 10 10 10 10 10 9 9 8 8 8 8 8 8 8 8 7 8 7 7 7 6 5 5 5 5 5 5 5 5 5 6 6 6 6 6 5 5 6 7 7 7 7 7 8 9
13 12 11 10 10 11 11 11 10 10 10 10 10 10 10 9 9 9 9 10 11 10 10 9 10 10 10 9 8 8 8 8 8 8 8 8 8 8 8 7 7 7 7 6 5 5 4 5 5 6 6 6 5 5 5 6 6 6 6 6 5 5 6 7 7 7 7 8 9
11 11 10 10 10 10 10 10 9 9 9 9 9 9 9 9 9 9 10 11 10 9 9 9 9 9 9 8 8 7 7 8 8 8 8 8 8 8 8 8 8 7 7 6 6 5 5 5 5 5 6 6 5 5 5 5 5 5 5 5 5 5 5 6 6 6 7 8 8
11 10 10 9 9 9 9 9 8 8 9 9 9 8 8 8 9 9 9 10 10 9 8 8 8 8 8 8 8 8 8 8 8 8 8 8 8 8 7 7 7 7 6 6 6 5 5 5 5 4 5 5 5 5 5 4 4 4 4 5 5 5 6 6 6 6 7 8 8
11 10 10 9 9 9 9 9 8 8 9 9 9 8 8 8 8 9 9 9 9 8 8 8 8 8 8 8 8 8 8 8 8 8 8 7 7 6 6 6 6 5 5 5 5 4 4 3 3 3 3 4 4 4 4 4 3 4 4 4 5 6 6 6 6 6 6 7 7
11 11 10 10 10 10 10 9 8 8 9 9 8 8 8 7 8 8 9 9 8 8 8 8 8 7 7 8 8 7 7 7 7 6 6 5 5 5 4 4 4 4 4 4 4 3 3 3 2 2 3 3 3 4 4 4 4 4 4 5 5 5 6 6 6 6 6 6 6
12 11 11 11 12 12 11 10 9 8 9 9 9 9 8 7 7 8 9 8 7 7 8 8 7 6 6 6 6 6 5 5 5 5 4 3 3 3 3 3 3 3 3 3 3 3 3 3 3 2 3 3 3 4 4 4 4 4 4 5 5 5 6 6 6 6 6 6 6
12 11 11 12 12 12 12 10 9 9 9 9 8 8 7 7 7 7 7 7 7 7 7 6 5 5 5 5 4 4 3 3 3 3 2 1 1 1 1 2 2 2 2 2 2 2 3 3 3 3 3 3 3 4 4 4 4 4 4 5 5 5 6 6 6 6 6 6 7
11 11 11 11 11 11 10 10 9 8 8 7 6 6 6 6 6 6 6 6 5 5 5 5 4 4 3 3 3 2 2 2 2 1 1 0 0 1 1 1 2 2 2 2 2 3 3 3 3 3 3 3 3 3 3 3 4 4 4 5 5 5 5 5 5 5 5 6 6
10 10 10 9 9 9 8 8 7 7 6 5 6 6 6 6 5 5 5 5 4 4 4 4 4 3 3 3 2 2 2 1 1 1 1 1 1 1 1 1 2 2 2 2 2 3 3 4 4 4 3 3 3 3 3 3 4 4 4 4 4 5 5 5 5 5 6 6 6
9 9 8 8 8 7 7 6 6 5 5 5 6 6 6 5 5 5 5 4 3 3 4 4 4 3 3 3 3 3 2 1 1 1 1 1 1 2 2 2 2 2 2 3 3 3 4 4 4 3 3 3 3 3 3 3 4 4 4 4 4 5 5 5 5 5 6 6 6
8 7 7 7 7 7 6 6 5 5 5 6 6 5 5 5 5 4 4 3 3 4 4 4 4 4 3 3 3 3 2 2 2 2 2 2 2 2 2 2 2 3 3 4 4 4 4 4 4 3 3 3 3 3 3 4 4 5 5 5 5 5 5 5 5 5 6 6 6
6 6 6 6 6 6 6 6 5 6 6 6 6 6 6 5 5 4 4 4 4 4 4 4 3 3 3 3 3 3 3 3 3 3 2 2 3 3 3 2 3 3 4 4 4 4 4 4 4 3 3 3 3 3 4 4 5 5 6 6 6 6 6 6 6 6 5 5 5
5 5 5 4 5 5 5 5 6 6 6 6 6 6 5 5 5 5 5 5 5 5 4 4 3 3 3 3 3 3 3 4 4 4 4 4 4 4 4 3 3 4 4 4 5 6 6 5 4 4 3 3 3 4 4 4 4 5 5 6 6 6 6 6 6 5 6 6 6
5 5 5 5 5 5 5 6 7 7 6 5 5 5 5 5 5 5 5 5 5 5 4 4 3 3 3 3 3 3 4 4 5 5 5 5 5 5 5 4 4 4 4 5 9 11 11 9 7 5 4 4 4 4 4 4 4 5 5 5 6 6 6 6 6 6 6 6 6
5 5 5 5 5 6 7 7 7 6 6 5 5 5 5 5 4 5 5 5 5 4 4 4 4 4 4 4 4 4 4 4 4 5 5 6 6 6 5 4 4 4 4 7 11 13 13 13 12 9 6 4 4 4 4 4 4 5 5 5 5 6 6 6 6 6 6 6 6
6 6 6 5 7 7 7 6 6 6 6 6 6 6 5 5 5 5 5 5 4 4 4 4 4 4 5 4 4 5 5 4 4 4 5 5 5 5 5 4 4 4 5 9 12 14 14 14 13 12 10 6 5 4 4 4 5 5 5 5 5 6 6 7 7 8 8 8 8
6 5 6 7 7 7 7 7 7 7 7 7 6 6 5 5 6 6 5 5 4 4 4 4 4 3 3 3 4 4 4 4 4 4 4 4 4 5 5 4 4 5 8 12 14 14 14 14 14 14 13 10 6 4 4 5 5 5 5 5 5 6 6 7 7 8 9 10 10
5 5 6 7 7 7 7 7 7 7 6 5 5 5 6 6 6 5 5 5 5 4 4 3 3 3 3 3 3 3 3 4 4 4 4 4 5 5 5 5 5 7 10 14 15 15 15 15 15 15 14 13 8 5 4 4 4 5 5 5 5 6 7 8 8 9 9 10 10
4 5 6 6 6 6 5 5 5 4 4 4 5 5 5 5 5 5 4 4 3 3 2 2 2 2 2 3 3 3 3 4 4 4 4 5 6 6 6 6 6 8 11 15 15 15 15 15 15 15 15 15 10 7 5 5 4 5 5 5 6 7 9 9 10 10 10 10 10
4 4 5 5 5 5 4 3 3 3 3 3 4 4 4 4 4 3 3 2 2 2 2 1 2 2 2 2 3 3 4 4 4 5 5 6 7 7 7 7 7 8 11 15 16 16 15 15 15 15 15 15 11 8 6 6 6 5 5 6 7 8 8 9 9 10 10 10 10
3 4 4 5 4 3 3 2 2 2 2 3 3 3 3 2 2 2 2 2 2 2 2 2 3 3 4 4 4 4 5 5 6 6 6 7 7 7 7 8 7 9 11 15 16 16 16 16 15 15 15 15 12 9 7 7 6 6 6 6 8 8 9 8 9 9 10 11 10
3 3 3 4 3 2 2 2 2 1 1 1 1 2 2 2 2 2 2 1 1 2 2 3 4 5 5 5 5 6 6 6 6 7 7 7 7 7 7 7 7 8 12 15 16 16 16 15 15 15 15 15 11 8 6 6 6 6 6 7 7 8 9 9 9 9 10 10 10
3 3 2 2 1 1 1 1 1 1 1 2 2 2 2 3 3 3 3 3 2 2 2 3 3 4 4 4 4 5 5 6 6 6 7 7 7 7 7 6 6 8 12 15 16 16 15 15 15 15 15 14 10 7 6 6 6 6 7 7 8 8 8 9 9 9 10 10 10
2 2 1 1 1 1 1 1 1 2 3 4 4 4 4 4 4 4 4 4 3 3 2 3 3 3 3 3 3 4 5 6 6 6 7 7 7 7 7 7 7 9 13 15 15 15 15 15 15 15 14 12 8 6 5 6 6 7 7 8 8 8 9 9 9 9 10 10 10
1 1 1 1 1 1 2 2 3 4 5 6 6 6 5 5 4 4 4 4 3 3 3 3 3 3 3 3 3 3 4 5 6 6 7 7 7 7 7 7 7 10 13 15 15 15 15 15 15 15 14 10 6 5 5 6 6 7 7 8 8 8 8 9 9 9 9 9 9
1 1 1 2 2 3 3 4 5 6 6 6 5 5 5 5 4 4 4 3 3 3 3 3 3 3 4 4 4 4 5 5 6 6 7 7 7 7 8 8 8 9 12 14 15 15 15 15 15 15 13 9 6 5 5 5 5 6 6 7 7 8 8 8 8 9 9 9 10
1 1 2 3 3 4 4 5 5 6 6 5 4 4 4 4 4 3 3 3 3 3 3 3 3 4 4 5 5 5 6 6 6 7 7 7 7 7 7 8 8 8 10 13 15 15 15 15 15 14 12 9 7 6 5 5 5 6 6 6 7 7 7 7 7 7 8 9 11
2 2 2 3 4 4 4 5 5 4 4 4 4 4 3 3 3 3 3 2 2 2 3 3 4 4 5 6 6 6 6 6 6 7 7 7 8 8 8 8 8 8 10 13 15 15 15 15 15 15 13 10 7 6 5 5 6 6 6 7 7 7 7 7 6 7 8 10 13
2 3 3 3 3 3 4 4 4 3 3 3 4 4 4 3 3 3 3 2 2 2 3 4 5 6 6 6 6 6 6 7 6 7 7 7 8 10 10 9 8 9 10 13 15 15 15 15 15 15 13 9 7 5 5 5 6 6 7 7 7 7 7 7 7 7 7 9 11
3 3 3 3 3 3 3 4 4 3 3 3 3 3 3 3 3 3 3 2 3 3 4 4 6 6 7 7 6 6 7 7 7 7 7 8 9 9 10 9 9 9 9 11 13 15 15 15 15 15 13 10 7 5 4 4 5 7 7 7 7 7 7 8 7 7 7 8 8
Wind_Direction
22 34 147 181 115 81 66 54 47 46 46 48 48 47 54 84 72 61 53 57 68 68 60 48 41 48 54 55 56 57 57 57 58 57 55 50 46 44 43 42 38 34 32 30 30 38 75 135 157 161 164 170 181 192 194 183 181 196 229 267 282 286 290 294 298 301 302 296 288
45 46 52 63 73 76 75 71 63 58 55 55 56 58 60 61 61 60 57 52 54 58 61 57 47 50 54 54 54 55 56 58 58 58 55 49 44 43 43 42 37 33 30 27 22 18 14 7 0 350 301 186 192 200 197 175 163 237 315 309 301 294 291 291 299 309 316 319 320
58 56 57 61 71 77 80 76 71 68 65 64 67 71 74 73 68 65 62 60 61 62 62 58 52 53 55 56 55 55 56 57 58 58 56 51 46 45 45 45 41 37 34 29 24 19 13 6 2 357 348 333 309 278 244 193 110 357 332 317 312 304 297 289 292 299 306 310 316
63 62 61 61 65 68 72 75 75 73 71 69 68 68 67 65 64 64 64 64 62 61 60 59 55 55 56 59 60 60 59 59 60 61 59 54 49 47 46 46 43 40 36 33 28 22 15 6 8 9 3 348 327 307 287 289 359 346 327 316 317 316 313 308 306 304 300 294 296
65 65 63 61 60 61 64 69 71 71 70 67 66 65 64 64 65 68 69 67 64 63 62 60 60 59 61 64 66 66 64 62 62 61 59 54 49 46 45 44 42 39 35 31 29 24 18 9 15 16 12 1 357 350 347 349 345 334 320 312 317 320 320 319 318 316 311 303 297
67 66 64 61 58 58 58 61 65 66 65 64 65 65 65 64 67 69 70 69 67 64 62 61 63 65 67 69 70 69 67 61 58 56 54 52 47 44 42 41 39 37 33 29 28 25 22 18 21 19 13 5 7 8 5 359 351 341 327 310 304 301 299 295 294 295 293 289 286
66 66 64 61 59 58 57 58 61 63 64 64 64 64 65 66 67 67 67 67 64 61 60 60 62 65 70 71 70 67 63 58 54 52 51 49 46 43 41 39 37 35 32 29 27 25 24 25 26 21 13 10 9 8 7 4 360 352 342 331 322 302 282 272 272 272 269 267 270
66 65 65 64 62 60 59 58 59 61 61 60 61 61 62 63 64 64 64 62 61 60 61 62 62 64 66 67 65 62 59 55 52 49 48 48 44 42 39 37 35 33 30 27 26 24 23 26 28 23 16 13 10 5 3 3 3 359 352 344 339 335 330 323 317 307 295 284 281
65 64 64 64 62 61 60 58 59 60 61 61 60 60 60 61 62 63 63 62 62 62 62 62 62 62 62 62 60 57 55 53 51 49 47 46 44 41 38 35 32 30 27 24 23 22 22 26 26 23 17 14 8 1 358 1 2 0 355 347 342 340 340 339 336 332 326 319 311
64 63 62 62 61 62 62 61 61 62 63 63 61 60 60 61 61 63 64 67 65 63 60 59 59 59 59 58 56 54 53 52 51 49 47 45 43 40 37 34 31 27 24 20 20 20 21 24 21 16 12 9 3 358 356 359 1 358 354 348 343 338 334 332 331 331 329 324 318
63 62 62 63 63 64 65 65 63 63 64 64 62 61 60 59 60 62 65 68 66 62 58 55 56 57 58 57 55 53 53 52 51 50 47 44 41 38 36 33 30 26 22 16 16 17 20 22 16 10 4 0 359 356 355 356 357 354 349 343 341 337 332 329 331 329 325 319 313
64 64 64 65 66 67 68 68 67 65 65 65 63 61 59 57 57 60 63 65 64 61 57 54 55 56 57 56 54 52 51 49 48 47 45 41 37 34 31 29 26 22 17 12 11 14 17 17 13 6 360 354 355 353 352 351 351 348 343 337 336 334 331 328 329 325 320 315 309
64 65 66 66 69 71 72 72 70 67 65 63 61 59 58 55 55 57 60 61 61 59 56 53 54 55 54 52 50 48 45 43 42 41 39 36 32 28 25 22 19 15 11 6 6 8 11 9 7 2 356 349 346 344 343 344 342 338 333 328 327 324 322 320 319 317 313 312 308
65 65 66 68 71 73 74 74 71 67 64 61 59 58 57 55 53 54 56 58 58 57 54 52 50 49 48 46 45 43 41 39 38 37 35 31 27 24 21 16 12 9 5 360 0 2 4 1 357 353 347 340 334 331 330 330 326 320 314 310 307 308 308 307 307 307 307 308 307
66 66 66 69 71 72 73 71 70 65 62 59 56 55 54 53 50 51 53 54 54 53 51 49 47 43 41 41 41 41 39 38 38 36 34 29 24 21 17 11 6 1 357 352 351 352 352 347 340 335 330 324 318 315 312 309 303 296 290 286 287 291 295 296 297 298 299 301 303
68 66 66 67 68 68 67 66 65 61 58 56 52 51 50 49 46 47 48 49 49 49 48 46 44 40 38 37 39 40 40 39 38 37 34 28 22 16 11 4 357 351 346 342 339 335 329 321 314 307 302 298 296 295 294 291 286 283 279 277 276 279 282 286 289 290 292 293 296
67 64 63 63 63 63 62 61 60 58 55 52 49 47 47 45 44 44 45 45 47 47 47 43 42 41 39 36 35 38 41 41 39 37 35 29 19 10 1 352 341 332 327 325 321 315 308 301 293 284 277 274 275 276 276 276 275 274 273 272 272 273 275 278 282 284 287 289 290
65 62 61 61 62 62 61 61 60 57 55 52 50 48 45 44 45 45 44 43 47 51 51 46 43 44 44 40 36 38 44 48 44 40 35 27 14 354 338 322 312 304 298 296 292 291 289 286 280 274 267 262 262 262 263 264 265 266 267 268 269 269 270 273 275 278 281 284 286
64 62 61 61 62 63 63 63 62 60 58 56 54 51 48 46 48 48 47 43 47 53 58 55 50 49 50 49 43 42 48 57 56 48 30 340 294 295 296 295 292 289 284 278 274 273 273 273 271 267 263 260 260 260 260 259 261 262 264 265 266 267 268 269 270 272 275 278 282
64 62 62 62 64 64 64 64 64 62 60 58 57 55 52 48 50 51 51 45 44 51 60 62 58 53 50 49 44 39 37 46 56 40 358 314 317 312 307 303 302 299 293 287 281 277 275 273 269 265 262 261 264 265 267 266 267 267 267 267 267 268 269 269 270 272 274 276 280
62 62 61 61 62 63 63 61 61 60 58 56 55 54 52 48 48 49 48 44 42 46 52 55 53 49 44 39 36 28 19 14 23 12 354 344 343 335 326 319 318 315 311 305 297 289 283 277 274 271 268 268 270 273 276 280 282 283 282 281 279 277 275 275 276 276 276 277 279
60 58 57 57 58 59 58 57 56 55 54 51 49 48 47 45 44 43 40 37 38 40 42 42 42 40 37 33 27 19 8 2 4 0 355 351 345 339 334 330 330 329 324 317 307 299 293 289 285 283 282 284 286 288 291 295 298 300 299 297 295 292 288 286 284 282 281 279 280
60 58 56 55 56 56 56 54 53 51 50 47 44 42 41 39 37 35 33 34 36 36 35 32 31 31 29 27 22 14 7 2 359 356 353 351 347 343 340 339 342 337 330 319 310 307 306 307 306 304 302 302 302 302 302 304 305 306 305 304 302 299 296 293 290 288 287 285 284
63 61 59 57 56 54 53 52 51 49 47 43 41 39 37 34 31 31 31 33 33 32 30 26 23 22 23 21 17 14 10 6 360 355 351 351 350 348 346 346 346 340 330 318 320 324 326 326 321 317 312 310 307 304 303 301 301 300 300 301 300 299 297 295 292 291 290 291 290
62 62 59 56 56 54 51 51 50 48 45 41 39 38 36 32 30 30 30 30 28 27 25 21 16 15 17 16 11 10 10 8 1 355 350 347 347 347 347 346 343 337 328 320 326 329 330 329 326 321 316 311 307 304 301 298 294 293 293 294 296 297 297 296 295 294 294 294 296
54 54 52 52 52 50 48 47 47 45 41 37 35 34 32 30 29 29 29 27 23 20 18 17 12 11 12 12 7 4 4 2 358 353 348 344 341 340 340 338 334 328 322 321 325 327 327 326 325 324 320 312 310 307 306 302 298 296 294 294 295 298 301 303 304 303 302 301 301
46 47 46 47 47 46 44 41 41 38 34 32 30 29 27 26 27 28 26 23 16 12 11 12 9 8 8 8 5 1 356 351 348 345 341 335 332 330 327 324 322 318 318 321 323 324 325 325 326 326 325 318 316 314 312 309 305 303 302 301 302 303 305 307 308 309 309 308 307
44 44 44 44 44 42 38 36 35 33 30 27 25 22 21 22 24 23 20 14 9 6 6 4 1 0 2 5 0 353 344 337 335 332 329 326 323 320 318 316 316 317 320 323 325 326 326 326 327 327 327 325 322 317 313 308 307 307 308 307 308 309 308 308 309 309 309 309 308
45 46 47 47 44 39 36 34 32 28 24 21 19 18 19 20 20 18 13 8 4 2 358 351 347 350 355 353 343 335 330 327 326 325 325 326 324 322 321 321 320 321 323 326 327 327 327 327 327 327 327 328 325 320 314 308 308 309 310 310 310 309 309 308 306 306 305 304 304
46 49 51 51 46 41 36 32 28 23 19 17 19 19 19 17 15 11 7 1 354 345 333 317 329 338 340 332 327 327 327 326 325 328 330 331 330 329 328 328 326 324 324 326 327 327 327 327 327 326 325 326 323 319 313 311 310 310 309 307 305 304 303 302 300 299 298 298 298
44 50 54 53 48 41 33 25 19 15 14 17 21 20 19 14 6 358 346 332 311 298 294 296 321 329 328 323 330 333 333 332 334 335 335 333 331 329 327 326 325 322 322 325 325 326 325 325 324 324 323 323 321 318 314 313 311 308 305 301 299 298 297 296 294 293 292 292 292
41 48 53 53 46 37 24 12 7 7 11 18 22 21 15 3 339 314 294 278 280 294 313 333 342 342 341 340 343 342 340 338 337 335 333 331 328 325 323 323 321 319 319 322 322 323 323 322 321 320 320 320 318 316 315 313 309 304 297 293 291 290 288 287 287 287 286 286 286
33 42 49 51 41 26 7 355 348 348 358 16 21 16 4 342 322 314 310 305 314 334 345 350 350 348 345 343 342 340 338 336 333 330 327 325 322 319 317 317 314 313 315 317 319 319 319 318 318 317 317 318 316 316 314 308 303 297 291 288 286 284 282 280 280 281 282 282 282
22 30 40 46 34 5 331 317 309 321 357 15 13 11 5 357 351 348 346 345 348 351 351 350 348 343 339 336 335 332 329 327 324 322 319 317 315 312 310 308 304 306 309 313 314 315 315 315 315 315 315 316 315 313 308 300 294 290 287 285 283 281 279 279 279 280 281 283 283
10 14 17 12 342 320 316 322 336 3 14 15 9 7 5 3 357 351 345 344 348 349 347 341 339 335 330 326 324 321 318 316 313 311 309 307 306 305 302 298 294 298 304 308 311 312 313 313 313 314 314 315 313 307 299 293 289 286 284 283 282 281 281 282 283 284 284 284 284
352 352 346 335 337 348 356 0 8 13 14 11 6 2 359 355 348 341 336 339 346 345 339 333 334 331 327 319 314 310 306 304 303 301 300 299 298 296 294 292 289 294 299 304 307 309 311 311 311 312 313 312 307 299 293 289 286 284 283 283 282 283 284 285 286 285 285 283 282
323 345 354 356 360 3 6 10 13 13 10 5 1 355 350 344 336 329 328 338 340 335 328 324 323 317 309 301 297 292 289 288 290 292 292 292 290 289 288 288 286 289 294 300 304 307 308 309 310 311 311 309 302 295 290 287 286 286 286 285 285 286 286 286 286 285 284 282 282
352 11 15 13 8 6 7 10 11 7 1 354 347 341 337 333 324 317 316 327 324 317 311 308 302 294 287 284 284 283 281 279 279 281 284 284 282 281 282 283 283 285 289 296 301 304 306 307 308 309 310 307 301 296 292 291 291 292 292 292 291 291 290 289 288 287 286 285 287
4 18 23 21 12 6 4 4 1 354 346 338 329 323 321 318 306 297 295 298 292 289 288 288 283 279 277 280 283 284 282 278 274 274 274 276 275 275 277 278 280 282 286 293 298 301 304 305 306 308 309 307 302 298 296 295 296 296 296 296 296 295 294 292 292 291 290 289 292
7 17 22 20 11 4 357 349 338 329 321 318 311 307 302 296 284 280 280 279 269 266 268 272 272 273 275 280 283 284 283 281 276 271 268 268 270 274 277 278 278 280 283 288 293 297 300 303 305 308 310 307 303 300 299 299 299 299 299 298 299 298 298 296 293 291 291 291 293
7 12 11 6 0 352 340 326 312 303 299 296 289 284 280 278 276 275 275 272 266 263 264 267 270 272 274 277 279 280 282 283 279 273 268 267 269 274 277 276 276 276 277 280 286 292 297 302 305 309 310 309 306 304 302 301 300 300 300 299 299 299 299 299 296 293 291 292 294